Weather Roundup
Issued by NWS Chicago, IL

Home | Current Version | Previous Version | Text Only | Print | Product List | Glossary Off
Versions: 1 2 3 4 5 6 7 8 9 10 11 12 13 14 15 16 17 18 19 20 21 22 23 24 25 26 27 28 29 30 31 32 33 34 35 36 37 38 39 40 41 42 43 44 45 46 47 48 49 50

000
NZUS59 KLOT 221900
HRRLOT

CHICAGO AREA WEATHER ROUNDUP
NATIONAL WEATHER SERVICE CHICAGO/ROMEOVILLE IL
200 PM CDT FRI AUG 22 2014

NOTE: "FAIR" INDICATES FEW OR NO CLOUDS BELOW 12,000 FEET WITH NO
SIGNIFICANT WEATHER AND/OR OBSTRUCTIONS TO VISIBILITY.

* THESE STATIONS ARE NOT UNDER NWS QUALITY CONTROL. THEY ALSO MAY NOT
  REPORT WEATHER SUCH AS PRECIPITATION OR FOG.

ILZ005-006-012>014-019>023-222000-
NORTHEAST ILLINOIS

CITY           SKY/WX    TMP DP  RH WIND       PRES   REMARKS
OHARE          PTSUNNY   84  68  58 SW7       29.93F HX  87
MIDWAY         CLOUDY    86  72  62 SW9       29.93F HX  92
AURORA         CLOUDY    81  70  69 W10       29.95S HX  84
WAUKEGAN       PTSUNNY   78  73  84 E7        29.93F HX  81
DUPAGE AIRPORT CLOUDY    84  70  62 W8        29.94F HX  88
WHEELING       PTSUNNY   85  73  67 CALM      29.93F HX  91
NORTHERLY IS     N/A     83  69  62 NW6         N/A  HX  86
$$

WIZ051-052-058>065-066-070>072-222000-
SOUTHEAST WISCONSIN

CITY           SKY/WX    TMP DP  RH WIND       PRES   REMARKS
MILWAUKEE      MOSUNNY   79  72  79 SE7       29.95F HX  82
KENOSHA*       PTSUNNY   81  74  79 E7        29.95F HX  86
RACINE*        MOSUNNY   80  73  79 E5        29.96F HX  84
WAUKESHA       PTSUNNY   81  72  74 SE5       29.95F HX  84
$$

INZ001>003-010>013-019-020-222000-
NORTHWEST INDIANA

CITY           SKY/WX    TMP DP  RH WIND       PRES   REMARKS
GARY*          PTSUNNY   84  73  70 W9        29.95  HX  91
MICHIGAN CITY* NOT AVBL
RENSSELAER*    NOT AVBL
VALPARAISO     CLOUDY    82  73  74 CALM      29.96F HX  87
$$

LMZ740>746-222000-
SOUTHERN LAKE MICHIGAN

STATION/POSITION TIME  SKY/WX   TEMP WIND        PRES    VSBY
                                AIR  DIR/SP/G
                 (UTC)          (F)  (DEG/KT/KT) (MB)    (MI)
HARRISON CRIB    1800            79  300/  4/  5   N/A
BURNHAM HARBOR   1900            83  290/  5/ 11   N/A
CALUMET HARBOR   1800            82  290/  4/  6 1012.6F
BURNS HARBOR     NOT AVBL
MICHIGAN CITY    1800            76  220/  6/  7   N/A
$$

ABBREVIATIONS USED IN REMARKS
   TC - TEMPERATURE IN CELSIUS
  WCI - WIND CHILL INDEX
   HX - HEAT INDEX
  VSB - VISIBILITY
$$



USA.gov is the U.S. government's official web portal to all federal, state and local government web resources and services.